Wind_Speed
47 47 47 47 47 47 47 48 48 48 48 48 48 48 48 48 49 49 50 50 51 51 52 52 53 54 54 55 55 56 56 56 57 57 57 57 58 58 58 58 58 58 58 58 59 59 60 60 60 60 61 62 64 66 68 70 72 73 75 74 73 71 70 69 67 64 64 67 68 68 68 67 67 68 69 68 69 70 72 75 79 82 85 87 88
46 46 47 47 47 47 47 48 48 49 49 49 49 49 49 50 50 51 51 52 52 53 53 54 54 55 55 55 56 56 56 56 57 57 57 57 57 57 57 58 58 58 59 59 60 60 60 60 60 61 63 64 66 68 70 72 74 74 73 71 69 69 68 68 67 66 65 66 67 67 68 69 70 71 72 70 70 71 74 77 80 84 87 89 90
46 46 45 46 46 46 47 47 48 49 49 50 50 50 51 51 52 52 53 53 53 54 54 55 55 55 55 56 56 56 56 57 56 56 56 56 57 57 58 58 58 59 59 60 60 60 60 60 61 63 65 66 68 70 72 73 73 72 70 68 67 68 68 69 69 68 66 64 66 68 70 71 73 74 74 73 74 76 78 80 82 84 87 89 91
46 46 46 46 46 46 47 47 48 49 49 50 51 51 52 52 53 53 53 54 54 55 55 55 55 56 56 56 56 56 56 55 55 55 55 56 57 58 58 59 59 59 59 59 59 60 61 62 63 65 67 69 71 72 73 73 71 69 67 67 67 68 69 70 70 69 68 66 67 70 72 74 75 76 77 77 78 80 83 84 85 86 87 89 92
47 47 47 47 47 47 48 49 49 50 50 51 52 52 53 53 53 53 54 54 55 55 55 55 56 56 56 55 55 54 54 54 55 56 57 58 58 59 59 59 59 59 59 59 60 61 62 64 66 68 69 71 72 73 73 70 67 66 66 67 68 69 70 71 71 71 70 70 70 72 74 76 78 80 81 82 82 83 84 85 86 87 89 91 94
48 48 48 48 48 49 49 50 50 51 51 52 52 53 53 53 53 54 54 55 55 55 55 55 55 54 53 53 53 54 54 56 57 58 58 59 59 59 59 59 59 59 59 60 61 63 64 66 68 70 72 73 74 72 69 66 65 65 67 68 69 70 71 72 72 71 71 73 74 74 76 79 80 82 84 86 88 89 88 86 85 86 89 92 96
48 48 48 48 48 48 48 49 49 50 51 51 51 52 52 53 53 53 54 54 53 53 53 52 52 52 52 53 55 56 57 58 58 59 58 58 58 58 58 58 59 60 61 62 63 64 66 68 70 72 73 73 72 68 65 65 66 67 68 69 69 70 72 72 72 73 73 75 76 78 79 82 83 84 86 89 92 93 93 91 88 88 90 93 97
51 50 50 49 49 48 48 48 49 49 50 50 50 51 51 52 52 52 52 52 52 52 52 53 53 54 56 57 58 59 59 58 58 57 57 57 57 58 58 59 60 61 62 63 65 67 68 70 72 73 73 71 67 65 65 66 67 68 69 70 70 71 72 73 73 74 75 77 79 81 82 84 85 86 88 91 93 93 94 94 94 93 93 94 97
53 53 52 52 51 51 51 50 50 50 50 51 51 52 52 52 53 53 54 54 54 55 56 57 58 59 59 59 59 58 57 56 55 55 56 56 57 58 59 60 61 62 64 65 67 69 71 72 72 71 69 67 65 65 66 67 68 69 70 70 71 72 73 73 74 76 77 79 81 83 84 85 87 89 91 93 94 94 94 94 95 96 96 96 97
51 52 52 52 52 53 53 53 53 53 53 54 54 55 55 55 56 56 57 57 58 59 59 60 60 59 58 57 55 54 53 53 54 55 56 57 58 59 60 61 63 64 66 67 69 71 72 71 70 68 66 65 65 66 67 68 69 69 70 71 72 73 73 74 76 78 80 82 83 85 85 87 90 92 93 94 94 94 94 95 95 96 98 99 99
49 50 51 52 52 53 54 55 55 55 56 56 57 57 58 58 59 59 60 60 60 59 59 57 56 54 53 52 51 51 52 53 54 55 57 58 59 60 61 63 65 66 68 69 71 72 70 68 66 65 65 66 66 67 68 69 69 70 71 73 73 74 75 76 77 80 82 84 85 87 88 89 92 94 94 94 93 93 94 95 97 98 100 102 102
51 51 52 52 53 54 55 55 56 57 57 58 58 59 59 59 59 58 57 56 55 54 52 51 50 50 49 50 51 52 53 54 56 57 58 59 60 62 64 65 66 68 70 71 71 69 66 65 64 65 66 67 68 68 69 69 70 71 72 73 74 75 76 78 80 82 84 85 87 88 90 91 93 94 94 93 93 93 94 95 97 99 101 102 103
54 54 55 55 56 57 57 57 58 58 58 58 57 56 56 55 54 53 51 50 49 49 48 48 48 49 50 51 52 53 54 56 57 58 59 61 62 64 65 67 68 70 71 70 68 65 64 64 64 65 67 68 68 69 70 70 71 72 73 73 74 76 77 80 83 84 85 86 87 89 92 93 93 93 92 93 94 94 95 96 97 99 100 101 102
56 57 57 57 57 57 57 56 56 55 54 53 53 52 51 50 49 49 48 48 48 48 49 49 50 50 51 52 53 55 56 57 58 60 61 63 64 66 67 69 70 70 69 66 64 64 64 64 65 66 68 68 69 70 70 71 72 72 73 74 75 77 79 82 84 85 86 87 88 90 92 93 92 92 92 94 95 95 96 97 98 99 99 99 101
52 52 52 52 51 51 51 50 50 50 50 50 49 49 49 49 49 49 49 49 50 50 51 51 51 52 53 54 55 57 58 59 60 62 63 65 66 68 69 70 69 67 65 64 63 64 64 65 66 67 68 69 69 70 70 71 72 72 73 75 76 78 81 83 84 85 86 87 89 90 91 92 92 92 93 94 95 95 96 98 99 99 99 99 99
45 46 46 46 47 47 47 47 48 48 48 49 49 49 49 49 50 50 50 51 51 52 52 53 53 54 55 56 57 58 59 61 62 64 65 67 68 69 69 68 66 64 63 63 63 64 65 66 67 68 69 69 69 70 71 71 72 73 74 75 78 80 82 83 84 85 86 88 89 90 91 91 92 92 93 94 94 95 95 97 98 99 100 100 99
43 44 45 45 46 46 46 47 47 48 48 48 49 49 50 50 50 51 51 52 52 53 54 54 55 56 57 58 59 60 61 63 64 66 67 69 69 69 67 65 64 63 63 63 64 65 66 66 67 68 69 69 70 71 71 72 73 74 75 76 79 82 82 83 84 85 87 88 89 90 90 90 90 91 92 93 94 94 95 96 97 99 100 101 99
41 42 43 44 44 44 45 45 46 46 47 48 49 49 50 51 51 52 53 53 54 54 55 56 57 57 58 59 60 62 64 65 66 68 69 69 68 66 64 63 63 63 63 64 65 65 66 67 68 68 68 69 71 71 71 72 73 74 76 78 81 82 82 83 84 85 87 88 89 89 89 89 90 90 91 92 93 94 95 96 97 98 100 100 99
39 40 41 42 42 43 43 44 45 46 47 47 48 49 50 51 51 52 53 53 54 55 56 57 58 59 60 61 63 64 66 67 68 68 68 67 66 64 63 64 64 64 64 64 64 65 66 67 68 68 69 71 71 71 72 73 73 75 78 80 81 82 82 83 84 86 87 88 88 88 88 88 89 89 90 91 92 93 95 95 97 98 99 98 97
40 41 41 42 43 43 43 44 45 45 46 47 47 48 48 49 50 51 52 53 54 55 56 58 59 60 61 62 63 64 65 66 66 66 66 65 64 63 64 65 65 65 64 64 64 65 67 68 68 70 71 71 71 72 72 73 74 77 80 81 81 82 83 84 85 86 87 87 87 87 87 87 88 89 89 89 90 92 93 94 96 98 98 97 95
40 40 41 41 42 42 43 43 44 45 46 46 47 47 48 49 50 50 51 53 54 55 56 57 58 59 60 61 61 62 63 63 64 64 64 64 64 64 65 65 65 65 64 63 64 66 67 68 69 71 72 71 72 72 72 74 77 80 81 81 81 82 84 85 86 86 87 87 87 86 85 86 87 87 87 88 89 90 91 93 95 96 96 95 94
39 39 40 40 41 41 42 43 44 45 46 46 47 48 48 49 50 50 51 52 53 54 55 56 57 58 58 59 60 61 62 63 64 64 64 64 65 65 66 66 65 64 63 64 65 67 69 70 72 72 72 71 71 72 74 77 80 80 80 81 82 83 85 85 86 86 87 86 86 85 84 85 85 85 85 86 87 88 88 91 93 93 92 92 92
39 39 40 40 41 42 42 43 43 44 44 44 45 46 47 48 49 50 51 52 53 54 55 56 57 57 58 59 60 61 62 63 64 65 65 65 65 66 66 65 64 63 64 65 68 70 72 73 73 72 71 71 73 75 78 80 80 79 80 81 82 84 85 86 86 86 86 85 84 83 83 83 83 83 84 86 85 85 86 88 89 89 89 89 89
41 41 41 41 41 41 41 41 41 41 41 42 43 44 45 46 48 49 50 51 52 54 55 55 56 57 58 59 61 61 62 63 63 64 64 65 65 65 64 64 63 64 66 68 70 72 74 73 72 71 72 74 76 78 79 79 78 78 79 81 84 85 86 86 86 85 85 84 83 82 82 82 82 83 84 84 83 83 85 85 85 85 85 85 86
43 43 43 42 42 42 42 41 42 42 43 44 44 45 46 47 48 48 50 51 51 52 53 54 55 57 57 59 60 60 61 62 62 62 63 63 64 64 64 64 64 66 68 70 72 73 74 73 72 72 74 77 78 78 77 76 76 78 81 84 86 86 86 85 85 84 83 82 81 81 81 81 82 83 84 83 82 83 83 82 81 81 81 82 83
45 45 45 45 45 45 45 46 46 47 48 48 48 48 48 49 49 49 50 50 51 52 53 54 55 56 56 57 58 59 60 60 60 61 62 62 63 64 64 64 65 67 70 71 72 72 72 72 72 74 76 77 76 75 74 74 77 81 84 86 86 86 85 85 84 83 82 80 79 79 80 80 82 83 82 81 81 82 81 80 79 78 79 79 80
47 47 47 47 47 47 48 49 50 50 51 51 51 50 50 50 50 50 50 51 52 52 53 54 55 55 56 57 58 59 60 60 60 61 62 64 65 66 66 66 67 68 69 69 69 70 72 74 75 75 75 74 73 73 75 78 82 85 86 86 86 86 85 84 83 81 79 78 78 78 79 80 81 81 79 79 80 80 80 79 78 78 78 78 77
47 47 47 47 47 48 48 49 49 50 51 51 51 51 51 52 52 52 52 53 53 54 55 55 55 56 57 58 59 60 60 61 61 63 64 66 66 66 67 66 65 65 66 68 70 73 76 76 75 73 73 73 74 76 79 82 85 86 86 86 86 85 84 83 81 79 77 76 77 77 78 79 79 77 77 78 79 78 78 78 78 78 78 77 77
48 48 48 48 48 48 49 49 49 50 51 51 52 52 53 54 54 54 55 55 56 56 56 57 57 58 59 60 60 61 61 62 63 65 66 67 67 67 67 66 65 65 68 70 73 75 76 75 73 73 74 75 76 79 82 84 85 86 86 86 85 84 83 82 79 77 76 75 76 76 77 77 76 75 75 77 77 76 76 76 77 77 77 77 76
51 50 50 50 50 50 50 51 51 52 53 53 54 55 55 56 56 56 57 57 58 58 58 59 59 60 61 62 62 62 63 64 65 66 66 67 68 68 66 64 64 66 68 69 72 75 76 75 74 74 74 75 77 80 83 85 85 85 85 84 84 83 82 79 76 75 75 75 75 75 76 75 74 73 74 75 75 74 74 75 76 76 76 75 75
53 53 52 52 52 52 52 53 53 54 55 55 56 56 57 57 58 58 59 59 60 60 61 61 62 62 63 63 63 63 64 65 65 66 67 67 68 67 64 62 64 67 69 72 75 77 76 75 74 74 75 77 80 82 84 84 84 84 83 83 82 81 79 76 74 74 74 74 74 74 74 73 72 72 73 74 73 73 73 74 75 74 74 74 73
54 54 54 54 54 54 55 55 56 56 57 57 57 58 58 59 59 60 61 61 62 62 63 63 63 64 64 64 64 65 65 65 66 67 67 68 68 67 65 66 68 71 73 74 76 76 74 73 73 75 77 80 82 83 84 84 84 83 82 82 80 77 75 73 73 73 73 73 73 73 73 73 72 72 72 72 72 72 72 73 73 72 72 72 72
55 55 55 56 56 57 57 57 58 58 58 58 58 59 59 60 61 61 62 63 63 64 64 65 65 65 66 66 66 67 67 67 68 68 68 68 68 68 68 69 71 73 73 74 74 74 74 73 74 77 80 82 83 83 83 82 82 82 81 80 77 74 72 72 72 72 72 72 72 72 73 73 72 71 71 71 70 70 71 71 70 70 70 70 70
57 57 57 57 58 58 59 59 59 58 58 58 59 59 60 61 62 63 64 64 65 65 66 66 67 67 68 68 69 69 69 68 69 69 69 69 69 69 70 72 73 72 72 73 73 74 74 75 77 79 81 82 83 83 82 81 81 79 78 76 74 72 72 71 71 70 71 72 72 72 73 73 71 70 70 70 69 69 70 70 69 68 68 68 68
60 60 60 60 60 60 59 59 58 58 59 59 60 61 62 63 64 65 65 66 67 68 68 68 69 69 70 70 71 70 70 70 70 70 71 71 71 71 72 73 73 72 72 73 74 75 77 78 80 81 82 82 82 82 81 80 78 76 74 73 71 71 71 71 70 71 72 72 72 73 73 73 71 68 68 68 68 68 68 68 67 67 67 67 67
62 62 62 62 62 60 60 59 59 59 60 61 62 63 64 65 66 67 68 69 70 70 70 71 71 72 72 72 71 71 71 71 72 72 73 73 73 73 73 73 72 73 74 76 77 79 80 80 81 82 82 82 81 79 77 75 74 73 73 72 71 71 72 72 72 73 73 72 73 73 73 72 69 66 66 67 67 66 66 66 66 65 65 65 65
63 63 63 63 62 61 61 61 62 63 64 65 66 67 67 68 69 70 71 71 72 72 73 73 73 74 74 73 73 73 73 73 74 74 74 74 74 74 74 74 75 77 78 79 80 81 81 82 82 82 82 82 80 75 72 72 72 71 70 71 71 72 73 73 73 72 72 72 73 73 73 70 67 64 65 65 65 65 64 64 64 63 63 63 63
64 64 63 63 63 63 64 65 66 67 68 69 70 70 71 72 72 73 73 74 74 75 75 75 75 76 75 75 75 75 75 76 76 76 76 75 76 77 77 78 79 80 81 81 82 82 83 83 83 82 81 80 77 73 71 71 70 67 68 71 73 74 75 74 72 71 71 72 73 73 73 69 65 63 64 64 64 63 62 62 62 62 62 62 62
64 64 65 65 66 66 67 68 69 71 72 72 73 73 74 74 74 75 75 76 76 76 76 76 76 76 76 76 76 77 77 77 77 76 76 77 78 78 79 80 80 81 81 82 84 84 85 85 84 82 78 75 74 73 72 69 66 66 69 73 76 76 75 72 70 70 71 72 73 74 73 68 64 62 63 64 62 61 60 60 60 60 60 60 60
65 66 67 68 69 70 71 72 73 74 75 75 76 76 76 76 76 77 77 77 77 77 77 76 76 76 76 76 76 77 77 77 78 78 79 79 80 80 81 81 82 83 84 84 84 85 86 86 84 79 73 70 73 74 72 68 67 69 73 76 77 77 74 70 69 69 70 72 75 75 71 66 63 62 63 62 61 59 59 58 58 58 59 59 59
68 69 71 72 73 74 75 76 77 77 78 78 78 78 78 78 79 79 78 78 78 78 77 77 77 77 77 78 78 79 80 80 81 82 82 82 82 82 83 83 84 85 84 83 84 84 84 82 79 75 72 72 74 74 72 71 72 74 75 78 79 76 72 69 68 69 71 74 76 74 69 64 62 62 62 61 59 58 57 56 56 57 57 57 57
73 74 75 76 77 78 78 79 80 80 80 80 80 80 80 80 80 80 80 80 80 79 79 79 79 80 81 81 82 83 83 84 84 84 84 84 84 84 84 85 85 84 83 83 83 82 80 78 77 77 76 75 73 73 73 74 74 75 77 79 77 73 70 69 69 71 73 76 75 71 67 63 62 62 61 58 57 57 56 55 55 56 56 56 56
78 79 80 81 81 82 82 82 83 83 83 83 82 82 82 82 82 82 82 82 83 83 83 83 83 84 84 84 85 86 86 86 86 86 86 86 86 86 86 86 85 83 83 83 81 79 78 80 81 81 78 75 74 74 76 76 75 76 78 77 74 71 71 72 73 74 76 75 72 68 64 63 62 61 58 56 55 55 55 54 55 55 55 55 56
83 84 85 85 85 86 86 86 86 85 85 85 85 86 86 86 86 86 86 86 86 86 86 86 86 87 87 87 88 88 88 89 89 88 88 88 87 87 86 85 84 84 84 83 82 81 82 83 83 80 78 76 76 76 76 76 76 76 76 74 73 74 76 76 77 76 74 71 68 65 63 62 61 59 56 54 54 54 53 53 54 54 54 54 55
87 88 89 89 89 89 89 89 89 89 89 89 89 90 90 90 90 90 90 90 90 90 90 90 90 90 90 90 90 90 90 90 90 89 88 88 87 86 85 85 85 85 84 84 84 83 83 82 82 80 79 78 77 76 76 76 76 75 75 76 77 79 80 79 77 73 69 66 64 63 62 61 60 57 54 53 53 53 52 53 54 53 53 53 55
91 91 91 91 91 91 91 92 92 93 93 94 94 94 94 94 94 94 94 94 94 94 93 93 93 92 92 91 91 91 90 90 89 88 88 87 86 85 85 84 85 85 85 84 84 83 82 82 81 80 79 78 78 78 78 78 78 79 80 80 81 81 80 76 72 67 64 62 62 61 61 61 58 55 53 52 52 51 51 52 53 52 52 52 54
94 94 94 94 94 95 96 96 97 97 98 98 98 98 98 98 98 97 97 96 96 95 94 94 94 93 92 92 92 91 90 90 89 89 88 87 86 85 85 85 85 85 85 84 84 83 82 81 81 80 80 80 80 79 80 80 80 81 81 80 79 78 74 70 66 63 61 60 60 60 60 59 56 53 52 52 51 51 51 52 52 51 51 51 53
96 96 97 97 98 98 99 100 100 100 101 101 100 100 100 99 99 98 97 97 97 96 96 96 95 95 94 94 93 92 92 92 91 90 90 89 88 87 87 86 86 86 85 84 83 82 81 81 80 80 80 79 79 79 79 79 79 78 77 76 74 71 67 63 61 60 60 59 59 59 59 57 55 53 52 51 51 50 51 52 52 50 49 50 52
98 99 99 100 101 101 102 102 102 102 102 102 101 101 100 100 100 99 99 99 99 98 98 98 97 96 96 95 94 94 93 93 92 91 90 90 89 88 88 87 87 86 85 83 83 82 81 80 80 79 79 79 79 78 78 77 77 75 73 70 67 64 61 60 60 60 60 60 59 58 57 55 54 52 51 51 50 50 50 51 51 49 48 50 51
101 101 102 102 103 103 103 103 103 103 103 102 102 102 102 101 101 101 100 100 100 99 99 98 98 97 97 96 95 94 94 93 92 92 91 90 89 88 88 87 86 85 84 83 82 81 80 79 78 78 78 78 77 76 75 74 73 70 67 65 62 61 61 61 61 61 61 60 58 56 55 54 53 52 51 50 49 49 50 50 49 48 48 49 50
103 103 103 103 103 104 103 103 103 103 103 103 103 102 102 102 102 101 101 101 100 99 99 98 98 97 97 96 95 94 94 93 92 91 90 89 88 87 87 86 85 84 83 82 81 80 79 78 77 76 76 75 75 73 72 70 69 67 66 65 64 64 64 63 62 61 60 58 56 55 54 52 51 51 50 49 49 49 49 49 48 47 47 48 49
Wind_Direction
260 261 262 264 265 266 267 268 268 269 270 271 271 272 273 273 274 274 275 276 277 278 279 279 280 280 281 282 283 285 286 287 288 289 290 290 291 292 293 294 295 295 296 296 297 298 300 301 301 302 303 304 305 306 307 308 308 308 308 308 308 309 309 309 310 311 311 311 310 310 309 309 309 309 310 311 312 313 315 316 316 316 316 316 315
259 261 262 263 264 265 266 266 267 267 268 269 269 270 271 272 273 274 275 276 277 278 279 280 280 281 282 283 284 286 286 287 288 288 288 289 291 292 293 294 294 294 295 296 298 299 300 301 302 303 304 305 306 307 308 308 308 308 308 309 309 309 309 310 311 311 311 311 310 309 309 309 309 310 311 312 313 314 315 316 317 317 317 316 316
260 261 262 263 264 264 265 266 266 267 267 268 269 270 271 272 273 274 276 277 278 278 279 280 281 282 283 284 285 285 286 286 286 287 288 290 291 292 292 293 293 294 296 297 298 299 300 301 302 303 304 305 306 307 308 308 308 308 309 309 309 310 310 311 311 311 311 311 310 309 309 309 310 311 313 314 315 315 316 317 318 317 317 316 316
262 262 263 264 264 265 265 266 267 268 269 269 270 271 272 273 274 275 276 277 277 278 279 280 281 282 283 283 284 284 284 285 286 288 290 290 291 291 292 293 294 296 297 298 298 299 300 302 303 304 305 306 307 308 308 308 308 308 309 309 310 311 311 311 311 312 312 311 311 310 310 311 312 313 314 315 316 317 318 318 318 317 317 317 317
261 262 263 264 264 265 265 266 267 268 269 270 271 272 272 274 274 275 275 276 277 277 278 279 280 281 282 282 282 283 285 286 288 289 289 289 290 291 292 294 295 296 297 297 298 299 301 302 303 304 306 307 308 308 308 308 308 309 309 310 311 311 311 311 312 312 312 312 312 311 312 313 314 315 315 316 317 317 317 318 318 318 318 318 318
261 262 262 263 264 264 265 266 266 267 268 268 269 270 271 272 273 274 275 275 276 277 278 279 279 280 281 282 283 284 286 287 288 288 288 289 290 292 294 295 295 296 297 298 299 300 301 302 304 306 307 307 308 307 307 308 309 309 310 310 311 311 312 312 312 312 312 313 313 313 314 314 315 316 316 317 317 317 317 317 317 318 318 319 319
259 260 261 261 262 263 264 264 265 265 266 267 268 269 270 271 272 273 274 275 276 277 277 278 279 280 281 282 284 285 286 287 287 288 289 290 292 293 294 295 295 296 297 298 300 301 302 304 306 307 307 307 307 307 308 309 309 310 310 311 311 312 312 312 312 313 313 314 314 315 315 315 315 316 317 317 317 318 318 318 318 318 319 320 320
258 259 260 261 262 262 263 263 264 265 265 266 267 268 269 269 270 271 272 273 274 275 276 277 278 280 281 283 284 285 286 287 288 289 291 292 293 293 294 294 295 297 298 299 301 303 304 305 306 306 306 306 307 307 308 309 309 310 310 311 312 312 312 312 312 313 314 314 314 315 315 316 316 316 316 316 317 317 317 318 320 321 321 322 321
258 259 260 261 262 263 263 264 264 264 264 264 265 265 266 267 268 269 270 272 273 275 276 278 280 281 282 284 285 286 287 288 290 291 292 292 293 293 294 295 296 298 299 301 303 304 305 305 305 305 305 306 307 308 308 309 309 310 311 311 312 312 312 312 313 313 314 314 315 315 315 316 316 316 316 316 316 317 318 320 321 322 322 322 322
259 260 261 262 262 263 263 264 264 264 264 265 266 266 267 268 269 271 272 274 276 278 279 280 281 283 284 285 286 288 289 290 291 291 291 292 293 294 295 296 298 299 301 302 303 304 304 304 304 304 305 306 307 307 307 308 309 310 311 311 311 311 312 312 313 313 314 314 315 315 315 316 315 315 316 317 318 319 320 321 321 322 322 322 323
260 261 261 262 262 262 263 263 264 265 266 267 268 269 270 271 273 275 276 278 279 280 281 282 283 284 286 287 289 290 290 290 290 290 291 292 293 294 296 297 299 300 301 302 303 303 303 303 303 304 305 306 306 307 308 309 309 310 311 311 311 311 312 312 313 313 314 315 315 315 315 315 315 316 317 318 319 320 321 321 322 323 324 325 326
261 262 263 264 265 265 266 267 268 269 270 271 272 273 275 276 277 278 279 280 281 282 283 284 285 286 288 288 289 289 289 289 290 291 292 293 294 295 296 297 298 300 301 302 302 301 302 302 303 304 305 305 306 307 308 309 310 311 311 311 311 312 312 313 313 314 314 315 315 315 315 316 317 318 318 319 320 320 321 322 323 324 326 327 328
264 265 266 267 268 269 271 272 273 274 275 276 277 278 279 279 280 280 280 281 282 283 284 284 285 286 287 287 288 288 288 289 290 291 292 293 294 295 296 297 298 300 300 300 300 300 302 303 303 304 305 305 306 308 309 310 310 311 311 311 312 312 313 313 313 314 315 315 315 316 316 318 319 319 319 320 320 321 321 323 324 326 328 329 329
266 267 268 269 271 272 273 274 275 276 277 277 278 279 279 280 280 280 281 281 282 282 283 284 284 285 286 286 287 287 288 289 290 291 292 293 294 295 296 297 298 299 299 299 300 301 302 303 304 304 305 306 307 308 309 309 310 311 311 311 312 312 313 313 314 314 315 315 316 317 318 319 319 319 320 320 321 322 323 324 326 327 329 330 331
269 270 271 271 272 272 273 273 274 275 275 276 277 278 279 279 280 281 281 281 282 282 282 283 283 284 285 285 286 287 288 288 289 290 291 292 293 294 296 297 298 298 298 299 300 301 302 303 304 305 305 306 307 308 308 309 310 311 311 311 311 311 312 313 313 314 314 315 316 318 319 319 319 319 320 320 322 323 324 326 328 329 330 331 331
272 272 272 272 272 273 273 273 274 274 275 276 277 277 278 278 279 279 280 280 281 281 281 282 283 283 284 285 286 287 287 288 289 290 291 292 293 295 296 297 297 297 297 299 300 301 303 303 304 305 305 306 306 307 307 308 309 310 310 310 310 311 312 313 313 314 314 316 317 318 318 318 319 319 320 321 323 324 326 328 329 330 330 331 332
274 274 275 275 275 276 276 276 276 276 276 277 277 277 277 277 277 278 278 279 280 281 282 282 283 284 285 285 286 286 287 288 289 290 291 293 295 296 296 296 296 296 297 299 301 302 303 303 304 304 304 304 305 306 307 308 308 309 308 308 309 310 312 312 313 313 315 316 317 318 318 319 319 320 321 322 324 325 327 328 329 330 331 331 333
277 277 277 278 279 280 280 279 279 278 278 278 277 277 277 277 278 278 279 280 281 282 282 283 283 284 284 285 285 286 287 288 290 291 293 294 295 295 295 294 295 296 298 300 301 302 303 303 302 302 302 302 303 305 306 306 307 306 306 307 309 310 311 312 312 314 315 316 317 317 318 319 319 320 322 323 325 327 328 329 330 331 331 332 334
278 279 279 280 280 280 280 280 279 279 279 279 279 279 279 280 280 281 281 281 281 282 282 282 283 283 284 284 285 287 288 289 290 291 292 292 293 293 293 294 295 297 299 300 301 301 301 300 300 300 300 301 302 304 305 305 304 304 305 307 309 310 310 311 312 313 314 315 316 317 318 318 319 321 323 324 326 328 328 330 331 331 332 334 335
278 278 279 279 279 279 279 279 279 279 280 280 280 281 281 281 282 282 282 282 282 282 282 282 283 283 284 285 286 287 288 289 289 289 290 290 291 292 293 294 296 297 298 299 300 299 299 298 298 298 299 300 302 303 303 302 302 303 305 307 308 309 310 311 311 312 313 314 316 317 317 318 320 322 323 326 327 328 329 331 331 332 333 335 336
277 277 278 278 278 278 278 278 278 278 278 278 279 279 280 280 280 281 281 281 281 281 282 282 283 283 284 285 285 286 286 286 287 287 288 289 290 291 292 294 295 297 298 298 298 297 296 296 296 296 299 301 302 301 300 300 302 304 305 306 308 309 310 310 311 312 313 315 316 317 318 319 321 322 325 327 328 329 330 332 332 333 335 336 336
276 277 277 278 278 278 277 277 277 277 276 277 277 278 278 279 279 280 280 280 280 281 281 281 282 283 283 284 284 284 285 285 286 287 288 289 290 291 292 293 295 296 296 296 295 294 293 293 295 298 300 300 299 298 299 301 303 305 306 306 307 308 308 309 311 312 314 315 316 316 318 320 321 323 325 327 327 329 331 332 333 335 336 336 337
278 278 278 278 278 278 277 277 276 276 276 277 277 278 279 279 280 280 280 280 280 281 281 281 282 282 282 283 283 283 284 285 286 287 288 289 289 290 291 293 294 294 294 293 292 292 292 294 296 298 298 297 297 298 300 302 304 305 305 305 306 307 308 310 311 313 314 315 316 317 319 320 322 324 325 325 327 330 331 332 334 336 336 336 337
280 280 280 279 278 278 276 276 275 276 277 278 279 279 280 280 280 280 279 279 279 279 280 280 281 281 281 282 282 283 284 284 285 286 287 288 289 290 291 292 293 292 291 290 290 291 293 295 296 295 295 295 297 299 301 303 303 303 303 304 305 307 309 310 311 313 314 315 316 317 318 320 322 323 324 325 328 330 331 333 335 336 336 337 337
282 281 281 280 279 278 277 276 277 278 280 281 281 281 281 280 280 279 279 279 279 279 279 280 280 280 281 282 282 283 284 284 285 286 286 287 288 289 290 291 291 290 289 290 291 292 293 294 294 294 295 296 298 300 301 302 301 301 302 304 306 307 308 310 311 312 313 315 316 317 319 321 322 322 323 326 328 330 331 333 335 335 336 337 337
283 283 282 281 280 279 278 278 279 280 281 282 283 282 282 281 281 280 280 280 280 280 281 281 282 282 283 283 284 284 285 285 286 286 287 288 288 289 290 290 289 289 290 291 292 292 292 292 292 294 296 298 299 300 300 299 300 301 302 304 305 307 308 310 311 312 314 314 315 317 319 321 321 322 324 327 328 330 331 333 334 335 336 337 337
283 283 283 282 282 282 281 281 281 282 282 283 283 283 283 282 282 282 282 282 282 282 283 283 284 284 284 284 285 285 286 287 287 288 288 288 288 289 290 290 290 291 291 290 290 289 289 290 293 296 298 299 299 298 298 299 300 301 302 304 305 307 308 309 311 312 313 313 315 318 320 320 321 323 325 327 328 330 331 333 333 334 335 337 338
284 283 283 283 283 283 283 284 284 284 284 284 284 284 284 283 283 283 283 283 283 284 284 285 285 285 285 285 286 287 288 288 288 288 288 288 289 289 290 291 291 289 287 286 286 287 289 292 295 297 297 297 297 297 297 298 299 300 302 303 305 306 308 309 311 311 312 313 316 319 320 320 322 323 325 326 327 329 331 332 333 334 335 337 338
284 283 283 284 284 285 285 285 285 286 286 286 286 286 286 286 286 285 285 285 285 285 285 286 285 285 285 286 287 288 288 288 287 287 288 288 288 288 289 290 289 285 285 286 287 289 291 293 294 294 294 295 296 296 296 297 299 300 302 303 304 306 308 309 310 310 312 315 317 319 320 321 322 323 324 326 327 329 331 332 332 333 335 336 338
282 282 283 284 285 286 286 287 287 287 288 288 288 288 288 288 288 287 287 287 287 287 286 286 285 285 286 287 287 287 287 287 286 287 287 287 287 288 290 290 287 286 286 287 287 289 291 291 292 293 295 295 295 295 296 297 299 300 301 302 304 306 307 308 309 311 313 316 317 318 320 321 322 322 323 325 327 328 330 331 331 332 334 336 338
280 280 282 283 285 286 286 287 288 288 288 288 288 289 289 289 289 288 288 288 288 287 287 286 286 286 287 287 287 287 286 286 286 286 286 286 287 289 289 286 284 283 284 284 286 288 290 291 293 294 294 294 294 295 296 298 299 300 301 303 305 306 307 308 310 313 315 315 316 318 321 321 321 321 322 324 326 327 329 330 330 331 334 336 337
280 280 281 282 284 285 286 287 287 287 287 288 288 288 289 289 289 289 289 289 289 289 288 288 287 287 287 286 286 286 286 286 285 286 286 287 288 288 286 284 283 283 284 285 287 289 290 291 292 292 292 293 295 296 297 298 299 301 302 303 304 305 307 309 312 313 314 314 315 318 320 321 320 320 322 323 325 326 328 328 329 330 333 335 336
278 279 280 281 283 284 284 285 285 285 286 286 287 288 288 289 289 289 289 289 289 289 288 287 287 286 286 286 286 286 286 286 285 286 287 287 287 287 286 285 285 285 286 287 287 288 289 290 290 291 293 294 295 296 297 298 299 301 302 303 304 306 308 310 311 311 312 312 314 317 319 319 319 319 321 322 324 325 326 327 328 330 332 334 335
277 277 279 281 282 283 283 283 283 283 284 285 285 286 287 287 287 287 288 288 287 287 287 286 286 286 286 286 286 286 286 286 286 286 286 286 286 286 285 285 286 286 287 287 287 288 288 290 291 292 293 294 295 296 297 298 299 301 302 303 304 306 308 309 310 310 310 310 312 315 318 318 318 318 319 321 322 324 325 326 327 329 331 333 334
277 278 279 281 282 283 283 282 282 283 284 285 285 286 286 287 287 287 287 287 286 286 286 286 286 286 286 286 286 286 286 286 286 286 286 286 286 286 286 286 287 287 287 287 287 287 289 291 292 293 293 294 295 296 297 298 299 301 302 302 303 305 307 308 308 308 308 308 311 314 316 316 316 317 318 319 321 322 324 325 326 328 330 332 332
279 279 280 281 282 282 281 281 282 283 284 284 285 286 286 286 286 287 286 286 286 286 286 286 286 286 286 286 286 285 285 285 286 286 286 286 286 286 286 286 286 286 286 286 287 288 290 292 292 293 293 294 295 296 297 298 299 301 301 302 303 305 306 306 306 306 306 307 310 313 315 314 314 315 316 318 319 321 323 324 325 327 329 330 331
280 280 280 280 281 281 281 281 282 283 284 284 285 285 285 285 285 285 285 285 285 285 286 286 285 285 286 286 285 285 285 285 285 285 286 286 286 286 286 286 285 285 286 287 289 290 291 291 292 292 293 293 294 295 297 298 299 300 300 300 302 303 303 302 303 303 304 306 309 312 313 313 313 314 315 316 318 320 322 323 324 325 327 328 329
279 280 280 280 280 281 282 282 283 284 284 285 285 285 285 285 284 284 284 284 285 285 285 285 285 285 285 285 284 284 284 284 284 285 285 285 285 285 285 285 286 287 288 289 290 290 290 291 291 292 293 294 294 295 297 299 298 298 297 298 298 299 299 299 300 301 303 305 309 311 311 311 312 312 313 315 317 318 320 321 322 324 325 326 328
279 279 280 281 281 282 283 283 284 284 284 284 284 284 284 284 284 284 284 284 285 285 285 285 285 284 284 283 283 283 283 283 284 284 284 284 285 285 286 286 287 288 288 289 289 289 289 290 291 292 294 294 293 294 297 298 296 295 296 296 296 296 296 297 298 299 302 306 309 310 310 310 310 311 312 314 316 317 319 320 321 322 323 325 326
279 280 281 282 283 283 284 284 284 284 284 284 285 285 285 285 285 285 285 285 285 285 284 284 284 283 282 282 282 282 282 283 283 284 284 285 286 286 287 288 288 288 288 288 288 289 290 291 292 293 293 290 289 291 295 295 294 294 294 293 293 294 294 295 296 299 303 306 308 308 308 308 308 309 311 313 314 315 317 318 319 320 321 323 325
279 281 282 282 283 283 284 284 284 284 284 284 285 285 285 285 285 285 285 284 284 284 283 283 282 282 281 281 282 282 283 284 284 285 286 287 288 288 288 288 287 287 287 287 288 288 290 291 291 290 289 287 287 290 292 292 291 291 291 291 292 293 293 293 296 300 304 306 306 305 305 306 307 308 310 311 313 314 316 316 316 317 319 321 323
280 281 282 283 283 283 283 283 284 284 284 284 284 283 283 283 283 283 282 282 282 282 282 282 282 282 282 283 283 284 285 285 286 287 288 288 288 288 287 287 287 287 286 287 287 288 288 287 287 287 287 287 287 288 289 289 288 288 289 290 291 291 291 294 297 300 303 304 303 302 303 304 305 307 308 309 311 313 314 314 314 315 317 319 322
282 283 283 284 284 284 284 284 283 283 283 283 282 282 282 281 281 281 281 281 281 282 282 282 283 283 284 284 285 285 286 286 287 287 287 287 287 286 286 286 286 285 285 285 286 285 284 284 285 286 287 286 285 285 286 287 287 287 287 288 288 289 292 295 298 300 301 301 300 300 301 302 304 305 306 308 310 311 311 312 312 313 316 318 321
283 283 284 284 284 284 284 283 283 282 282 282 282 282 281 281 282 282 282 282 283 283 284 284 285 285 286 286 286 286 286 286 286 286 285 285 285 285 284 284 283 283 283 283 283 282 282 283 285 285 285 284 284 284 285 285 285 285 285 286 288 290 293 295 297 298 298 297 297 298 299 301 302 304 304 306 308 309 309 309 310 312 314 317 320
283 283 284 284 283 283 283 283 282 282 283 283 283 283 283 284 284 285 285 286 286 286 286 286 286 286 286 285 285 285 284 284 284 284 284 283 283 283 283 282 282 282 282 282 282 282 283 283 284 284 283 283 283 283 283 283 283 284 285 287 289 290 292 293 294 295 295 294 295 296 298 299 301 302 302 304 306 306 306 307 309 310 313 317 319
283 283 283 283 283 283 284 284 284 285 285 286 286 287 287 287 288 288 287 287 287 286 286 285 285 285 284 284 284 284 283 283 283 283 283 283 282 282 281 281 281 281 282 282 282 282 283 282 282 282 282 281 281 281 281 281 282 283 285 286 287 288 290 291 292 292 291 292 293 295 296 298 300 300 301 302 303 303 304 306 307 309 313 316 319
283 284 284 285 286 286 287 287 287 288 288 288 288 288 288 287 287 286 285 285 284 284 284 284 285 285 285 284 284 284 284 283 283 283 283 282 282 282 281 281 280 280 281 281 281 281 281 281 281 280 280 280 280 280 280 280 281 282 283 284 285 287 288 289 289 289 289 290 291 292 295 297 298 298 299 300 300 301 302 304 306 308 312 315 318
285 286 286 287 287 287 287 287 287 287 287 286 286 285 285 284 284 284 284 284 284 285 285 285 285 285 285 284 284 284 284 283 283 283 283 282 282 281 280 280 280 280 280 280 280 280 280 279 279 279 279 279 279 279 279 280 280 281 282 283 284 285 286 287 287 287 287 288 289 290 293 295 295 295 297 298 297 298 301 303 305 307 311 314 317
286 286 286 286 286 286 285 285 284 284 283 283 283 283 283 283 283 284 284 284 285 285 285 285 285 284 284 284 284 284 283 283 283 282 282 281 281 280 280 279 279 279 279 279 279 278 278 278 278 278 278 278 278 278 279 279 279 280 281 282 283 284 284 284 284 284 285 285 286 289 292 293 292 293 294 295 295 296 299 302 304 306 310 314 316
284 284 284 283 283 282 282 282 282 282 282 282 283 283 283 284 284 284 284 284 284 284 284 284 284 284 284 283 283 283 282 282 282 281 281 281 280 279 279 279 279 279 278 278 278 277 277 277 277 277 277 277 277 278 278 278 279 280 280 281 281 281 281 281 281 282 283 283 284 287 290 290 289 290 292 292 292 294 298 301 303 306 309 313 316
282 281 281 281 281 281 282 282 282 282 283 283 283 284 284 284 284 284 284 284 284 284 284 284 283 283 283 283 282 282 282 281 281 280 280 280 279 279 278 278 278 278 278 277 277 277 277 276 276 276 276 276 276 276 277 277 278 279 279 279 279 279 279 279 280 281 281 281 283 286 287 287 286 287 289 289 290 293 297 300 302 305 308 312 315
Height
5819 5819 5819 5820 5820 5820 5819 5819 5818 5818 5817 5817 5816 5815 5815 5814 5813 5812 5811 5810 5809 5808 5807 5805 5804 5802 5800 5798 5796 5795 5793 5791 5789 5787 5784 5782 5779 5777 5774 5772 5770 5767 5765 5762 5760 5757 5755 5753 5750 5748 5745 5742 5739 5736 5732 5729 5726 5722 5718 5714 5710 5707 5705 5703 5702 5703 5698 5688 5682 5679 5675 5672 5670 5666 5665 5664 5659 5652 5648 5642 5634 5626 5617 5610 5603
5813 5814 5814 5814 5814 5814 5813 5813 5813 5812 5811 5811 5810 5810 5809 5808 5807 5806 5806 5805 5803 5802 5801 5799 5798 5796 5794 5792 5791 5789 5787 5785 5782 5780 5777 5775 5773 5770 5768 5766 5764 5761 5759 5756 5754 5751 5749 5747 5744 5742 5739 5736 5732 5729 5725 5721 5717 5714 5709 5705 5701 5698 5696 5694 5692 5692 5691 5684 5676 5671 5667 5663 5660 5657 5654 5654 5652 5647 5641 5636 5629 5619 5609 5601 5592
5808 5808 5808 5808 5808 5808 5807 5807 5806 5806 5805 5805 5804 5804 5803 5802 5802 5801 5800 5799 5798 5796 5795 5793 5792 5790 5788 5786 5785 5783 5780 5778 5776 5773 5771 5769 5767 5765 5762 5760 5758 5756 5753 5751 5748 5746 5743 5741 5738 5736 5732 5729 5726 5722 5718 5714 5709 5705 5701 5697 5693 5689 5686 5684 5682 5680 5681 5678 5670 5664 5660 5655 5651 5648 5645 5643 5641 5637 5632 5628 5623 5614 5603 5594 5584
5801 5801 5801 5801 5801 5801 5801 5800 5800 5799 5799 5798 5798 5797 5797 5796 5796 5795 5794 5793 5792 5790 5789 5787 5786 5784 5782 5780 5778 5776 5774 5771 5769 5767 5765 5763 5761 5758 5756 5754 5752 5750 5747 5745 5742 5740 5737 5735 5732 5729 5726 5722 5718 5715 5710 5706 5702 5697 5693 5689 5685 5682 5678 5674 5672 5669 5668 5668 5664 5657 5651 5647 5642 5637 5635 5634 5631 5627 5622 5617 5612 5606 5597 5588 5578
5795 5795 5795 5795 5795 5795 5794 5794 5793 5793 5793 5792 5792 5791 5791 5790 5790 5789 5788 5787 5786 5784 5783 5781 5779 5777 5775 5773 5771 5769 5767 5765 5763 5761 5759 5757 5755 5752 5750 5748 5746 5744 5741 5739 5737 5734 5732 5729 5726 5722 5719 5715 5711 5707 5702 5698 5695 5690 5686 5682 5678 5674 5670 5666 5663 5660 5657 5656 5654 5649 5643 5637 5633 5627 5622 5620 5620 5619 5616 5612 5604 5595 5587 5579 5568
5789 5789 5789 5789 5788 5788 5788 5787 5787 5787 5786 5786 5785 5785 5784 5784 5783 5782 5781 5780 5779 5778 5776 5774 5773 5771 5769 5767 5765 5763 5761 5759 5757 5755 5753 5751 5748 5746 5744 5742 5740 5738 5736 5733 5731 5728 5726 5722 5719 5715 5711 5707 5703 5699 5695 5690 5687 5683 5679 5675 5671 5666 5662 5658 5654 5652 5648 5645 5642 5639 5634 5628 5624 5620 5613 5607 5604 5602 5602 5604 5601 5592 5582 5571 5559
5782 5782 5782 5782 5782 5781 5781 5781 5781 5780 5780 5780 5779 5779 5778 5777 5777 5776 5775 5774 5772 5771 5769 5767 5766 5764 5762 5760 5758 5757 5755 5753 5751 5748 5746 5744 5742 5740 5738 5736 5734 5732 5730 5727 5725 5722 5719 5715 5712 5708 5704 5700 5695 5691 5688 5683 5680 5676 5672 5668 5664 5659 5655 5651 5646 5643 5640 5636 5631 5628 5625 5619 5615 5611 5606 5599 5594 5588 5582 5582 5585 5583 5577 5566 5551
5775 5775 5775 5775 5775 5775 5775 5774 5774 5774 5774 5773 5773 5772 5771 5770 5769 5769 5767 5766 5765 5763 5762 5760 5759 5757 5755 5754 5752 5750 5748 5746 5744 5742 5740 5738 5736 5734 5732 5730 5728 5726 5723 5721 5718 5715 5712 5708 5704 5701 5696 5692 5689 5685 5681 5677 5672 5668 5664 5660 5656 5652 5648 5643 5639 5635 5631 5627 5623 5619 5615 5610 5605 5602 5598 5592 5586 5581 5574 5567 5564 5562 5561 5557 5542
5769 5769 5769 5769 5768 5768 5768 5768 5768 5767 5766 5766 5765 5764 5764 5763 5762 5761 5760 5759 5758 5756 5755 5754 5752 5750 5749 5747 5745 5744 5742 5739 5738 5736 5734 5732 5730 5728 5726 5724 5721 5719 5716 5714 5711 5707 5704 5701 5697 5693 5689 5685 5682 5678 5674 5670 5666 5661 5657 5653 5649 5645 5641 5636 5631 5627 5623 5619 5615 5611 5607 5601 5595 5592 5590 5584 5576 5571 5566 5559 5554 5548 5543 5542 5534
5762 5763 5763 5763 5762 5762 5762 5761 5761 5760 5759 5759 5758 5758 5757 5756 5756 5755 5754 5752 5751 5750 5748 5747 5745 5744 5742 5740 5739 5737 5735 5733 5731 5729 5727 5725 5723 5721 5719 5717 5714 5712 5709 5706 5703 5700 5697 5693 5690 5686 5682 5679 5675 5671 5667 5663 5659 5655 5650 5646 5642 5638 5634 5629 5624 5620 5615 5611 5606 5602 5599 5594 5587 5581 5578 5574 5568 5560 5555 5548 5544 5539 5532 5527 5523
5756 5756 5756 5756 5756 5756 5755 5755 5754 5754 5753 5753 5752 5751 5751 5750 5749 5748 5747 5746 5744 5743 5742 5740 5739 5737 5735 5734 5732 5731 5729 5727 5725 5723 5721 5719 5716 5714 5712 5710 5707 5705 5702 5699 5696 5693 5689 5686 5682 5679 5675 5672 5668 5664 5660 5655 5652 5648 5643 5639 5634 5631 5627 5622 5618 5613 5608 5603 5597 5592 5589 5585 5579 5572 5567 5564 5559 5552 5546 5539 5531 5526 5518 5508 5502
5751 5750 5750 5750 5749 5749 5749 5748 5748 5747 5747 5746 5745 5744 5744 5743 5742 5741 5739 5738 5737 5736 5735 5733 5732 5731 5729 5728 5726 5724 5722 5720 5718 5716 5714 5712 5709 5707 5705 5703 5700 5698 5695 5692 5688 5685 5682 5678 5675 5672 5668 5664 5660 5656 5652 5648 5644 5640 5636 5631 5627 5623 5619 5614 5610 5605 5600 5595 5589 5582 5578 5575 5569 5563 5557 5553 5550 5544 5538 5531 5523 5515 5506 5495 5485
5745 5744 5744 5743 5743 5742 5742 5741 5741 5740 5739 5738 5738 5737 5736 5735 5734 5733 5732 5731 5730 5730 5728 5727 5726 5725 5723 5722 5720 5718 5716 5714 5712 5709 5707 5705 5702 5700 5698 5696 5693 5690 5687 5684 5681 5678 5675 5671 5668 5665 5660 5657 5653 5649 5645 5641 5637 5633 5629 5624 5620 5615 5611 5606 5601 5596 5591 5586 5581 5574 5568 5564 5559 5554 5548 5542 5538 5534 5528 5522 5516 5508 5500 5490 5477
5738 5738 5737 5737 5736 5736 5735 5735 5734 5733 5732 5731 5731 5730 5729 5728 5728 5727 5726 5725 5724 5723 5722 5721 5720 5718 5717 5715 5713 5711 5709 5707 5705 5703 5700 5698 5695 5693 5691 5688 5686 5683 5679 5676 5673 5670 5667 5664 5661 5657 5653 5649 5646 5642 5639 5635 5631 5627 5622 5617 5613 5608 5604 5599 5593 5588 5583 5577 5572 5566 5559 5554 5549 5544 5539 5534 5527 5521 5515 5509 5503 5498 5493 5485 5474
5731 5731 5731 5730 5730 5729 5729 5728 5727 5726 5726 5725 5724 5724 5723 5722 5721 5720 5720 5719 5718 5717 5715 5714 5713 5712 5710 5709 5707 5705 5702 5700 5698 5696 5693 5691 5688 5686 5684 5681 5678 5675 5672 5669 5666 5663 5660 5656 5653 5649 5646 5642 5639 5636 5633 5629 5624 5620 5615 5611 5606 5601 5596 5592 5586 5581 5576 5570 5564 5559 5553 5547 5542 5536 5530 5524 5518 5511 5504 5496 5489 5484 5480 5476 5470
5724 5724 5724 5723 5723 5723 5722 5722 5721 5720 5720 5719 5718 5718 5717 5716 5715 5714 5713 5712 5711 5710 5709 5708 5707 5705 5704 5702 5700 5698 5695 5693 5691 5689 5686 5684 5681 5679 5676 5674 5671 5667 5664 5661 5658 5655 5652 5649 5646 5642 5639 5636 5633 5630 5627 5623 5618 5614 5609 5604 5599 5594 5589 5585 5579 5574 5569 5563 5557 5552 5546 5540 5534 5528 5521 5515 5509 5502 5496 5488 5481 5475 5470 5466 5462
5718 5718 5717 5717 5717 5716 5716 5716 5715 5714 5714 5713 5712 5711 5710 5709 5709 5707 5707 5706 5704 5703 5703 5701 5700 5699 5697 5695 5693 5691 5688 5686 5684 5682 5679 5677 5674 5671 5669 5666 5663 5660 5658 5655 5652 5649 5646 5642 5639 5636 5633 5630 5627 5624 5620 5616 5612 5608 5604 5599 5593 5589 5583 5578 5573 5567 5562 5556 5550 5545 5539 5533 5527 5520 5513 5506 5500 5493 5487 5481 5474 5467 5461 5455 5451
5712 5712 5711 5711 5711 5711 5710 5710 5709 5708 5707 5707 5706 5705 5704 5703 5702 5701 5700 5699 5698 5697 5696 5695 5693 5692 5690 5688 5686 5684 5681 5679 5676 5674 5672 5669 5666 5664 5661 5658 5656 5654 5651 5649 5646 5643 5639 5636 5632 5629 5626 5623 5620 5617 5614 5610 5606 5602 5598 5593 5588 5583 5578 5572 5567 5561 5555 5549 5544 5538 5532 5526 5520 5513 5506 5499 5492 5484 5478 5472 5465 5459 5453 5445 5438
5706 5706 5705 5705 5705 5705 5704 5703 5703 5702 5701 5700 5699 5699 5698 5697 5696 5695 5694 5693 5692 5690 5689 5688 5686 5685 5683 5681 5679 5677 5674 5671 5668 5666 5664 5661 5659 5656 5654 5651 5649 5647 5645 5642 5639 5636 5632 5629 5625 5622 5620 5617 5614 5611 5607 5603 5600 5595 5591 5587 5582 5577 5572 5567 5562 5557 5551 5545 5539 5533 5527 5520 5514 5507 5500 5493 5485 5477 5470 5463 5456 5450 5443 5436 5428
5700 5700 5700 5699 5699 5698 5698 5697 5697 5696 5695 5694 5693 5692 5691 5690 5689 5689 5687 5686 5685 5683 5682 5680 5679 5677 5675 5673 5672 5669 5667 5664 5661 5659 5656 5654 5652 5649 5646 5644 5642 5640 5638 5635 5632 5629 5625 5621 5618 5615 5612 5610 5607 5604 5600 5597 5593 5589 5584 5580 5576 5571 5566 5561 5556 5551 5546 5540 5534 5528 5522 5515 5508 5501 5494 5486 5478 5471 5464 5456 5448 5440 5432 5426 5420
5694 5693 5693 5692 5692 5691 5691 5690 5689 5688 5687 5687 5686 5685 5684 5683 5682 5681 5680 5679 5677 5676 5674 5673 5671 5670 5668 5666 5664 5662 5660 5657 5653 5651 5649 5647 5645 5642 5639 5637 5635 5633 5631 5628 5624 5621 5617 5614 5611 5608 5605 5603 5600 5596 5593 5590 5586 5582 5577 5573 5568 5564 5560 5555 5550 5545 5539 5533 5527 5522 5516 5509 5503 5495 5488 5481 5473 5466 5458 5449 5441 5433 5423 5415 5411
5687 5687 5686 5686 5685 5684 5684 5683 5682 5681 5680 5680 5679 5678 5677 5676 5675 5674 5673 5672 5670 5669 5667 5665 5664 5662 5660 5659 5657 5654 5652 5650 5646 5644 5642 5640 5638 5635 5633 5630 5628 5626 5623 5620 5616 5613 5609 5606 5603 5601 5598 5595 5592 5589 5585 5582 5578 5574 5569 5565 5561 5557 5552 5548 5543 5537 5532 5527 5521 5515 5510 5504 5497 5490 5483 5477 5471 5462 5454 5445 5435 5427 5418 5408 5402
5681 5681 5680 5679 5678 5678 5677 5676 5675 5674 5673 5673 5672 5671 5670 5669 5668 5667 5666 5664 5663 5661 5660 5658 5656 5655 5653 5651 5649 5647 5645 5643 5640 5637 5635 5633 5630 5628 5626 5624 5622 5619 5616 5612 5608 5605 5601 5598 5596 5593 5591 5588 5584 5581 5577 5573 5570 5566 5561 5557 5553 5549 5544 5540 5535 5530 5525 5520 5514 5508 5503 5498 5492 5485 5479 5474 5468 5461 5452 5443 5434 5425 5417 5408 5399
5675 5674 5673 5673 5672 5671 5670 5669 5669 5668 5667 5666 5665 5664 5663 5662 5661 5660 5658 5657 5656 5654 5653 5651 5649 5648 5646 5644 5642 5640 5638 5636 5634 5631 5628 5626 5623 5621 5619 5617 5614 5612 5608 5604 5600 5597 5593 5591 5588 5586 5583 5580 5576 5573 5569 5565 5562 5558 5554 5550 5545 5541 5537 5532 5528 5523 5518 5512 5507 5501 5496 5491 5485 5480 5475 5469 5464 5458 5450 5442 5434 5425 5417 5408 5399
5668 5667 5667 5666 5665 5665 5664 5663 5662 5661 5660 5659 5658 5657 5656 5655 5654 5653 5651 5650 5649 5647 5646 5644 5642 5640 5639 5637 5635 5633 5630 5628 5627 5624 5622 5619 5617 5614 5612 5609 5607 5604 5600 5596 5593 5589 5586 5583 5581 5578 5575 5571 5568 5565 5561 5557 5554 5550 5546 5542 5538 5533 5529 5525 5520 5516 5510 5505 5500 5494 5489 5483 5478 5473 5468 5463 5457 5452 5446 5440 5433 5426 5418 5409 5399
5661 5660 5660 5659 5658 5658 5657 5656 5655 5654 5653 5652 5651 5650 5649 5647 5646 5645 5644 5643 5641 5640 5638 5637 5635 5633 5631 5630 5627 5625 5623 5621 5619 5617 5615 5612 5609 5606 5604 5602 5599 5595 5592 5588 5585 5581 5578 5575 5573 5570 5567 5563 5560 5556 5553 5550 5546 5542 5538 5534 5530 5525 5521 5517 5513 5508 5503 5498 5493 5488 5482 5477 5472 5466 5461 5456 5450 5445 5440 5435 5430 5424 5417 5409 5400
5654 5653 5652 5652 5651 5650 5649 5648 5647 5646 5645 5644 5643 5642 5641 5640 5639 5638 5637 5635 5634 5632 5631 5629 5627 5626 5624 5622 5619 5617 5615 5613 5611 5609 5606 5603 5601 5599 5597 5594 5591 5587 5583 5580 5577 5573 5570 5568 5566 5563 5559 5555 5551 5548 5545 5542 5538 5534 5530 5526 5522 5517 5513 5509 5505 5501 5497 5492 5487 5481 5475 5470 5465 5460 5454 5449 5444 5438 5433 5428 5423 5418 5412 5406 5398
5646 5645 5645 5644 5643 5642 5641 5640 5639 5638 5637 5636 5635 5634 5633 5632 5631 5630 5629 5627 5626 5624 5623 5621 5620 5618 5616 5613 5611 5609 5607 5606 5603 5600 5597 5595 5593 5591 5588 5586 5583 5579 5576 5573 5569 5566 5562 5560 5558 5554 5550 5547 5544 5540 5537 5533 5530 5526 5522 5517 5513 5509 5505 5501 5497 5493 5489 5485 5479 5473 5468 5463 5459 5453 5448 5442 5437 5432 5426 5421 5416 5411 5405 5399 5393
5638 5637 5636 5636 5634 5634 5633 5632 5631 5630 5629 5628 5627 5626 5625 5624 5623 5622 5620 5619 5618 5616 5615 5613 5611 5609 5607 5605 5603 5601 5599 5597 5594 5591 5589 5587 5584 5582 5580 5578 5575 5571 5567 5564 5561 5557 5554 5552 5549 5546 5542 5539 5536 5532 5528 5525 5521 5517 5513 5509 5505 5501 5497 5493 5489 5485 5481 5476 5471 5467 5462 5457 5452 5447 5442 5437 5431 5426 5421 5415 5409 5405 5400 5394 5387
5631 5629 5628 5627 5626 5625 5624 5623 5622 5622 5621 5620 5619 5618 5617 5616 5615 5614 5612 5610 5609 5608 5607 5605 5602 5600 5598 5597 5594 5592 5591 5588 5585 5582 5580 5578 5575 5573 5571 5569 5565 5561 5558 5555 5551 5548 5546 5543 5540 5537 5534 5531 5527 5523 5519 5516 5512 5509 5505 5500 5496 5492 5489 5485 5481 5477 5472 5468 5464 5460 5456 5451 5446 5441 5436 5431 5425 5420 5415 5410 5404 5399 5394 5389 5382
5623 5622 5621 5619 5618 5618 5616 5615 5615 5614 5613 5612 5611 5610 5609 5608 5606 5605 5604 5602 5601 5599 5598 5596 5593 5591 5589 5588 5585 5584 5581 5578 5575 5573 5571 5568 5566 5565 5563 5560 5556 5553 5550 5547 5543 5539 5537 5534 5531 5528 5525 5522 5518 5514 5510 5506 5502 5499 5496 5492 5488 5484 5480 5477 5472 5468 5464 5460 5457 5453 5449 5444 5440 5435 5431 5426 5420 5415 5410 5405 5399 5393 5388 5383 5378
5615 5614 5613 5612 5611 5610 5609 5608 5607 5606 5605 5604 5603 5602 5601 5599 5598 5596 5595 5593 5592 5590 5588 5587 5584 5582 5580 5578 5576 5574 5572 5569 5566 5564 5562 5560 5557 5556 5553 5550 5547 5544 5541 5538 5534 5531 5528 5526 5523 5519 5516 5512 5509 5505 5501 5496 5492 5489 5485 5482 5479 5476 5472 5468 5464 5460 5456 5453 5449 5445 5442 5438 5433 5429 5424 5420 5415 5410 5406 5400 5395 5389 5383 5378 5373
5607 5606 5605 5604 5603 5602 5601 5600 5599 5598 5597 5596 5595 5594 5593 5591 5590 5588 5586 5585 5584 5582 5580 5578 5575 5573 5571 5569 5567 5565 5562 5559 5557 5555 5553 5551 5548 5546 5544 5540 5537 5535 5532 5529 5525 5522 5519 5517 5514 5511 5507 5503 5499 5495 5491 5487 5483 5479 5476 5472 5470 5467 5463 5459 5456 5452 5449 5445 5442 5438 5434 5431 5427 5422 5418 5413 5409 5405 5400 5395 5390 5384 5379 5373 5368
5598 5597 5597 5596 5595 5594 5593 5592 5591 5590 5589 5588 5587 5586 5584 5583 5582 5580 5578 5577 5575 5573 5571 5569 5566 5564 5562 5559 5557 5555 5552 5550 5547 5545 5543 5541 5539 5537 5534 5531 5528 5526 5523 5520 5516 5513 5511 5509 5506 5502 5498 5493 5489 5486 5482 5478 5474 5471 5467 5464 5460 5457 5454 5451 5448 5445 5441 5438 5434 5431 5427 5424 5420 5416 5412 5408 5403 5399 5395 5390 5385 5380 5374 5369 5364
5589 5589 5588 5587 5586 5585 5584 5583 5582 5581 5580 5579 5578 5577 5575 5574 5573 5571 5570 5568 5566 5564 5562 5559 5557 5555 5552 5550 5547 5545 5542 5540 5538 5536 5534 5532 5529 5527 5524 5522 5520 5517 5514 5511 5507 5504 5502 5500 5496 5493 5488 5484 5481 5477 5473 5469 5466 5462 5458 5455 5453 5450 5447 5443 5440 5437 5434 5430 5427 5423 5420 5417 5413 5410 5406 5402 5398 5394 5389 5384 5380 5375 5370 5365 5360
5581 5580 5579 5578 5577 5576 5575 5574 5573 5572 5571 5570 5568 5567 5566 5564 5563 5562 5560 5558 5556 5554 5552 5549 5547 5544 5542 5540 5537 5535 5533 5531 5528 5526 5524 5522 5520 5518 5516 5514 5511 5507 5504 5501 5498 5496 5493 5490 5487 5483 5479 5476 5472 5468 5464 5461 5457 5453 5450 5447 5445 5442 5438 5435 5432 5429 5426 5423 5420 5416 5413 5410 5407 5403 5399 5396 5392 5388 5384 5379 5374 5370 5365 5360 5356
5571 5571 5570 5569 5568 5567 5566 5565 5564 5563 5562 5560 5559 5558 5556 5555 5553 5551 5550 5548 5546 5544 5542 5540 5537 5535 5533 5531 5527 5524 5522 5520 5518 5517 5515 5513 5510 5508 5506 5503 5500 5497 5494 5491 5488 5486 5483 5480 5477 5474 5470 5466 5463 5460 5456 5452 5449 5446 5442 5438 5436 5433 5430 5428 5425 5421 5418 5416 5413 5409 5406 5403 5400 5397 5394 5390 5386 5382 5378 5373 5369 5365 5360 5356 5351
5562 5561 5560 5559 5559 5558 5556 5555 5554 5553 5551 5550 5548 5547 5546 5544 5542 5541 5539 5538 5536 5534 5532 5530 5527 5525 5523 5520 5517 5514 5512 5510 5508 5507 5506 5503 5500 5498 5495 5492 5488 5486 5483 5480 5478 5475 5472 5470 5467 5464 5460 5457 5453 5450 5447 5444 5441 5438 5434 5431 5428 5425 5423 5420 5417 5414 5411 5408 5405 5402 5399 5396 5393 5390 5387 5384 5380 5376 5372 5368 5363 5359 5355 5351 5346
5552 5552 5551 5550 5549 5548 5547 5545 5544 5542 5541 5539 5538 5536 5535 5533 5531 5530 5528 5526 5525 5523 5522 5520 5518 5516 5513 5510 5506 5503 5501 5499 5498 5497 5495 5493 5490 5487 5483 5480 5477 5475 5472 5469 5467 5464 5461 5459 5457 5454 5451 5447 5444 5441 5439 5436 5433 5430 5427 5423 5420 5418 5415 5412 5409 5406 5404 5401 5398 5395 5392 5389 5386 5384 5381 5377 5374 5370 5366 5362 5358 5354 5350 5346 5342
5543 5542 5541 5540 5539 5537 5536 5535 5533 5531 5530 5528 5526 5525 5523 5521 5520 5518 5516 5515 5514 5512 5510 5509 5508 5505 5502 5499 5496 5493 5490 5488 5487 5485 5483 5481 5478 5475 5472 5469 5466 5464 5461 5458 5455 5452 5449 5447 5445 5443 5441 5438 5435 5432 5430 5428 5425 5422 5419 5415 5412 5409 5407 5404 5401 5398 5396 5393 5390 5387 5385 5382 5379 5376 5374 5371 5367 5364 5360 5357 5353 5349 5345 5341 5337
5533 5532 5530 5530 5528 5527 5525 5524 5522 5520 5519 5517 5515 5513 5511 5509 5508 5506 5505 5504 5502 5501 5499 5498 5497 5494 5491 5488 5485 5482 5479 5477 5475 5473 5471 5470 5467 5464 5461 5457 5454 5451 5449 5446 5444 5441 5438 5436 5435 5433 5431 5429 5426 5424 5421 5419 5416 5413 5410 5406 5403 5401 5398 5396 5393 5390 5387 5384 5382 5380 5378 5375 5373 5370 5367 5364 5360 5357 5354 5351 5347 5344 5340 5336 5332
5522 5521 5519 5518 5517 5516 5514 5512 5510 5509 5507 5505 5504 5502 5500 5498 5497 5495 5494 5492 5491 5489 5487 5486 5484 5482 5479 5476 5473 5470 5467 5465 5463 5460 5459 5458 5455 5453 5449 5445 5442 5439 5437 5434 5432 5429 5427 5426 5425 5423 5421 5419 5417 5414 5412 5409 5407 5404 5401 5398 5395 5392 5390 5387 5385 5382 5379 5377 5374 5372 5370 5368 5366 5363 5360 5357 5354 5350 5347 5344 5341 5338 5334 5331 5327
5510 5509 5507 5506 5505 5503 5502 5500 5498 5497 5495 5494 5492 5490 5489 5487 5485 5483 5482 5480 5478 5476 5475 5473 5471 5469 5466 5464 5460 5457 5455 5453 5451 5449 5447 5445 5443 5440 5437 5433 5430 5427 5425 5423 5421 5419 5417 5416 5414 5412 5411 5409 5407 5404 5402 5399 5397 5394 5391 5389 5386 5383 5381 5379 5376 5374 5371 5369 5367 5365 5363 5361 5359 5356 5354 5351 5347 5344 5341 5338 5335 5332 5328 5325 5321
5497 5496 5494 5493 5491 5490 5489 5487 5486 5484 5482 5481 5479 5478 5476 5474 5472 5470 5469 5467 5465 5463 5461 5459 5457 5454 5453 5451 5447 5444 5443 5441 5438 5436 5434 5433 5430 5428 5425 5421 5418 5415 5414 5412 5410 5408 5406 5404 5402 5401 5400 5398 5396 5394 5391 5389 5387 5384 5382 5379 5377 5374 5372 5370 5368 5365 5363 5360 5358 5357 5355 5353 5351 5349 5346 5343 5340 5338 5335 5332 5329 5326 5322 5319 5315
5484 5483 5481 5480 5478 5476 5475 5473 5472 5470 5469 5467 5466 5464 5462 5460 5458 5456 5453 5452 5450 5448 5446 5444 5442 5440 5438 5436 5434 5432 5430 5427 5425 5423 5421 5419 5417 5415 5412 5409 5405 5403 5402 5400 5398 5396 5395 5393 5391 5389 5387 5386 5384 5382 5380 5378 5376 5374 5372 5370 5367 5365 5363 5361 5359 5357 5354 5352 5350 5349 5347 5345 5344 5341 5339 5336 5334 5331 5328 5325 5322 5319 5316 5313 5309
5471 5470 5468 5466 5465 5463 5461 5459 5457 5455 5454 5452 5450 5448 5446 5444 5442 5440 5438 5436 5434 5433 5431 5429 5427 5425 5423 5421 5419 5417 5415 5412 5410 5409 5407 5406 5404 5402 5399 5396 5393 5391 5389 5387 5385 5384 5383 5381 5378 5377 5375 5373 5372 5371 5369 5367 5366 5364 5362 5360 5357 5355 5354 5352 5351 5349 5346 5344 5342 5340 5339 5337 5335 5333 5331 5329 5326 5324 5321 5319 5316 5313 5310 5306 5303
5457 5456 5454 5452 5450 5448 5445 5443 5441 5440 5438 5436 5434 5433 5431 5429 5427 5425 5423 5422 5420 5418 5416 5414 5411 5409 5408 5406 5404 5402 5400 5398 5396 5395 5393 5392 5390 5388 5385 5383 5380 5378 5376 5375 5373 5372 5370 5368 5366 5364 5363 5361 5360 5359 5357 5356 5354 5353 5351 5349 5347 5346 5344 5343 5341 5340 5338 5337 5335 5333 5331 5329 5327 5325 5324 5321 5319 5317 5315 5312 5309 5307 5304 5300 5297
5442 5440 5438 5437 5435 5433 5430 5429 5427 5425 5423 5421 5420 5418 5416 5414 5412 5411 5408 5406 5404 5402 5400 5398 5396 5394 5392 5390 5388 5386 5384 5382 5381 5380 5379 5377 5375 5373 5371 5368 5366 5364 5363 5362 5361 5359 5358 5356 5354 5352 5350 5349 5348 5346 5345 5344 5343 5341 5340 5339 5338 5336 5335 5334 5332 5331 5330 5329 5327 5325 5324 5322 5320 5318 5316 5314 5312 5310 5308 5305 5303 5300 5297 5294 5291
5427 5426 5424 5422 5420 5418 5416 5415 5413 5411 5409 5407 5405 5403 5401 5399 5397 5395 5393 5391 5389 5387 5385 5383 5380 5378 5376 5374 5373 5371 5369 5367 5366 5364 5363 5362 5360 5358 5355 5353 5352 5351 5350 5349 5347 5346 5344 5343 5341 5340 5338 5336 5335 5333 5332 5331 5331 5330 5329 5329 5328 5327 5326 5325 5323 5322 5321 5320 5319 5317 5316 5314 5312 5310 5309 5307 5305 5303 5301 5299 5296 5294 5291 5288 5285
5413 5411 5409 5408 5406 5404 5402 5400 5398 5395 5393 5391 5390 5388 5386 5384 5382 5380 5378 5375 5374 5372 5369 5367 5365 5363 5361 5359 5357 5355 5353 5352 5350 5349 5347 5346 5344 5342 5340 5338 5338 5337 5336 5335 5334 5332 5331 5330 5329 5327 5325 5324 5322 5321 5320 5319 5319 5318 5318 5318 5317 5317 5317 5316 5315 5313 5312 5311 5310 5309 5308 5306 5305 5303 5302 5300 5298 5296 5294 5292 5290 5287 5285 5282 5279
5398 5396 5394 5392 5390 5388 5386 5384 5382 5380 5378 5376 5374 5372 5370 5368 5366 5364 5362 5360 5358 5356 5353 5351 5349 5347 5345 5343 5341 5339 5337 5336 5334 5333 5331 5330 5329 5327 5325 5324 5323 5322 5321 5321 5320 5318 5317 5316 5315 5314 5313 5311 5310 5309 5308 5307 5307 5307 5307 5307 5307 5306 5306 5306 5306 5305 5303 5303 5302 5301 5299 5298 5297 5295 5294 5292 5291 5289 5287 5285 5283 5281 5278 5275 5272